Flag for Congo Dem.Rep. Weather past 2 weeks in Bukavu, Congo Dem.Rep.

Now
81 °F

Passing clouds.


Feels Like: 81 °F
Forecast: 55 / 76 °F
Wind: 6 mph from East

Location: Kigali Airport

Current Time: Jan 28, 2015 at 7:18:21 PM

Latest Report: Jan 28, 2015 at 7:00 PM


Visibility: N/A

Pressure: 29.98 "Hg

Humidity: 42%

Dew point: 55 °F

Location of BukavuLocation

Historic Weather in Bukavu — Graph

°F

Bukavu temperature yesterday

Maximum temperature yesterday: 88 °F (at 3:30 PM)
Minimum temperature yesterday: 61 °F (at 6:30 AM)
Average temperature yesterday: 74 °F

Past Weeks' High & Low Weather Summary

 TemperatureHumidityPressure
High88 °F (Jan 14, 1:00 PM)100% (Jan 19, 4:00 AM)30.24 "Hg (Jan 19, 4:00 AM)
Low59 °F (Jan 23, 3:30 AM)29% (Jan 17, 2:30 PM)29.95 "Hg (Jan 28, 3:00 PM)
Average72 °F75%30.10 "Hg
* Reported Jan 13 5:00 PM — Jan 28 5:30 PM, Bukavu, Weather by CustomWeather, © 2014

Note: Actual official high and low records may vary slightly from our data, if they occured in-between our weather recording intervals... More about our weather records

Advertising

Bukavu weather history for previous 24 hours

 ConditionsComfort  
Time TempWeatherWind HumidityBarometerVisibility
5:30 PM
Jan 28
84 °FPassing clouds.6 mph43%29.95 "HgN/A
5:00 PM84 °FPassing clouds.10 mph43%29.95 "HgN/A
4:30 PM86 °FScattered clouds.8 mph40%29.95 "HgN/A
4:00 PM88 °FScattered clouds.8 mph33%29.95 "HgN/A
3:30 PM86 °FScattered clouds.7 mph38%29.95 "HgN/A
3:00 PM86 °FScattered clouds.8 mph35%29.95 "HgN/A
2:30 PM88 °FScattered clouds.6 mph40%29.98 "HgN/A
2:00 PM86 °FScattered clouds.6 mph43%30.01 "HgN/A
1:30 PM86 °FScattered clouds.7 mph43%30.01 "HgN/A
1:00 PM86 °FScattered clouds.3 mph43%30.04 "HgN/A
12:30 PM84 °FScattered clouds.5 mph48%30.04 "HgN/A
12:00 PM82 °FScattered clouds.6 mph55%30.07 "HgN/A
11:30 AM81 °FPassing clouds.7 mph58%30.07 "HgN/A
11:00 AM81 °FPassing clouds.5 mph58%30.09 "HgN/A
10:30 AM81 °FPassing clouds.3 mph62%30.09 "HgN/A
10:00 AM79 °FSunny.3 mph58%30.12 "Hg10 mi
9:30 AM77 °FSunny.3 mph65%30.12 "Hg10 mi
9:00 AM77 °FClear.3 mph61%30.12 "Hg5 mi
8:30 AM75 °FClear.No wind65%30.12 "Hg5 mi
8:00 AM72 °FClear.No wind73%30.12 "Hg5 mi
7:30 AM70 °FPassing clouds.No wind78%30.12 "Hg4 mi
7:00 AM66 °FPassing clouds.No wind83%30.09 "Hg5 mi
6:30 AM66 °FMild.No wind83%30.09 "HgN/A
6:00 AM66 °FMild.No wind83%30.09 "HgN/A
5:30 AM66 °FMild.No wind83%30.07 "HgN/A
5:00 AM68 °FMild.No wind83%30.07 "HgN/A
4:30 AM68 °FMild.No wind78%30.07 "HgN/A
4:00 AM68 °FMild.No wind83%30.07 "HgN/A
3:30 AM70 °FMild.No wind73%30.07 "HgN/A
3:00 AM70 °FMild.No wind73%30.07 "HgN/A
2:30 AM70 °FMild.6 mph73%30.07 "HgN/A
2:00 AM70 °FMild.3 mph73%30.07 "HgN/A
1:30 AM72 °FMild.No wind65%30.07 "HgN/A
1:00 AM72 °FMild.3 mph65%30.07 "HgN/A
12:30 AM72 °FMild.No wind61%30.09 "HgN/A
11:30 PM
Jan 27
72 °FMild.No wind61%30.09 "HgN/A
11:00 PM73 °FMild.No wind57%30.09 "HgN/A
10:30 PM73 °FMild.3 mph61%30.07 "HgN/A
10:00 PM75 °FMild.3 mph57%30.07 "HgN/A
9:30 PM77 °FWarm.5 mph51%30.07 "HgN/A
9:00 PM75 °FMild.3 mph47%30.07 "HgN/A
8:30 PM77 °FWarm.No wind47%30.04 "HgN/A
8:00 PM77 °FWarm.3 mph47%30.04 "HgN/A
7:30 PM77 °FWarm.3 mph47%30.01 "HgN/A
7:00 PM79 °FWarm.3 mph45%30.01 "HgN/A
Weather by CustomWeather, © 2014

See weather overviewHow to use our weather pages